UFO 11 (USA 174)

Last updated on Sun Apr 12 2026 00:02:51 GMT+0000 (Coordinated Universal Time)

1 28117U 03057A 26101.39279648 -.00000097 00000+0 00000+0 0 9997 2 28117 8.9092 34.1517 0002990 328.8949 53.3956 1.00272153 81789
UTC large
Height (km)
Speed (km/s)
/
Latitude / Longitude
Inclination (degrees)
Orbital Period (minutes)
Azimuth
Elevation
Range (km)
Doppler Factor

Next 0 passes for location: London (51.5072 / 0.1276)

Sorry there are no passes over London.
UFO 11 (USA 174)